Voltar ao catálogo

RASSVET-3 9

AtivoCiênciaPO
NORAD 68368·PAYLOAD·🇷🇺 Russia

Lançado Mar 23, 2026 de Plesetsk Cosmodrome

Loading…

Próximas Passagens (próximas 24 horas)

TLE

AtualizadoSource: Space-Track

Época: Sep 14, 2026, 01:03 UTC

1 68368U 26061J   26257.04432636  .00001976  00000-0  94705-4 0  9998
2 68368  82.2895 281.6558 0003569  44.5205 315.6315 15.18379396 27044

Acompanhe RASSVET-3 9 em tempo real com AllMySat

Download on the App Store